Regional Weather Roundup
Issued by NWS

Home | Current Version | Previous Version | Text Only | Print | Product List | Glossary Off
Versions: 1 2 3 4 5 6 7 8 9 10 11 12 13 14 15 16 17 18 19 20 21 22 23 24 25 26 27 28 29 30 31 32 33 34 35 36 37 38 39 40 41 42 43 44 45 46 47 48 49

000
ASUS45 KBOU 220107
RWRCO

WEATHER ROUNDUP FOR COLORADO
NATIONAL WEATHER SERVICE DENVER/BOULDER CO
600 PM MST FRI NOV 21 2014

NOTE: "FAIR" INDICATES FEW OR NO CLOUDS BELOW 12000 FEET WITH NO
SIGNIFICANT WEATHER AND/OR OBSTRUCTIONS TO VISIBILITY.

COZ001>005-013-030-031-220200-
...NORTHWEST COLORADO...

CITY           SKY/WX    TMP DP  RH WIND       PRES   REMARKS
CRAIG          CLEAR     29  20  69 CALM      30.03R
HAYDEN         CLEAR     36  19  51 SW3       30.03R
MEEKER         CLEAR     33  23  66 NE3       30.03R
MOUNT WERNER   NOT AVBL
STEAMBOAT SPGS CLEAR     35  18  51 E3        30.04R
WALDEN         CLEAR     30  14  51 SW6       30.03R WCI  24
$$

COZ006>008-011-220200-
...WEST CENTRAL VALLEYS...

CITY           SKY/WX    TMP DP  RH WIND       PRES   REMARKS
GRAND JUNCTION CLEAR     37  18  46 CALM      30.02R
MONTROSE       CLEAR     38  18  44 CALM      30.06R
EAGLE          CLEAR     36  19  51 E6        30.06R
RIFLE          CLEAR     35  23  61 SE5       30.03R WCI  31
DELTA          CLEAR     43  18  35 CALM      30.03R
NUCLA          CLEAR     45  21  39 S3        30.07S
$$

COZ017>023-064>068-220200-
...SOUTHWEST COLORADO...

CITY           SKY/WX    TMP DP  RH WIND       PRES   REMARKS
DURANGO        PTCLDY    41  18  39 SW5       30.06R
CORTEZ         CLEAR     37  20  50 CALM      30.05R
PAGOSA SPRINGS PTCLDY    33  19  55 CALM      30.09R
TELLURIDE      MOCLDY    32  19  57 CALM      30.12R
WOLF CREEK PAS PTCLDY    21  12  68 SW12      30.14S WCI   9
$$

COZ009-010-012-014-032>034-037-058>063-220200-
...CENTRAL COLORADO...

CITY           SKY/WX    TMP DP  RH WIND       PRES   REMARKS
ASPEN          PTCLDY    28  17  63 SW10      30.07R WCI  19
BUENA VISTA    CLEAR     34  15  46 CALM      30.06R
COPPER MTN     PTCLDY    23  10  58 W10       30.12S WCI  12
BERTHOUD PASS  FAIR      16  12  86 NW20G25   30.10R WCI  -1
COTTONWOOD PAS CLEAR     34  10  37 W8        30.09R WCI  27
GUNNISON       CLEAR     27  16  63 N5        30.12R WCI  21
KREMMLING      CLEAR     32  18  55 CALM      30.05R
LEADVILLE      PTCLDY    26  10  50 VRB3      30.08R
MONARCH PASS   PTCLDY    19  10  68 W21       30.23R WCI   3
SALIDA         CLEAR     42  13  30 SW13G20   30.12R
SUNLIGHT       CLEAR     27  18  69 CALM      30.13S
WILKERSON PASS PTCLDY    27   5  39 NW7       30.13R WCI  19
$$

COZ069>075-220200-
...SAN LUIS VALLEY/SANGRE DE CRISTO MOUNTAINS...

CITY           SKY/WX    TMP DP  RH WIND       PRES   REMARKS
ALAMOSA        MOCLDY    32  14  47 SE3       30.06R
LA VETA PASS   PTCLDY    28  12  50 S9G20     30.08R WCI  20
SAGUACHE       PTCLDY    34  16  47 SW3       30.08R
$$

COZ035-036-038>040-220200-
...NORTHERN COLORADO FRONT RANGE...

CITY           SKY/WX    TMP DP  RH WIND       PRES   REMARKS
DENVER INTL AP PTCLDY    41  24  51 S10       29.95R
DMNS CITY PARK   N/A     43  20  39 SW2       29.96R
AURORA         NOT AVBL
FRONT RANGE AP NOT AVBL
ERIE MUNI ARPT PTCLDY    37  24  61 CALM      29.95R
BOULDER MUN AP PTCLDY    45  21  39 SW7       29.95R
CENTENNIAL     PTCLDY    41  22  46 S5        29.96R
BROOMFIELD     PTCLDY    45  16  31 W7        29.96R
FORT COLLINS   MOCLDY    45  25  45 CALM      29.96R
LONGMONT       MOCLDY    41  29  62 W5        29.97R
$$

COZ041-046-047-076>085-087-088-220200-
...PIKES PEAK/PALMER DIVIDE AND SOUTHERN FOOTHILLS...

CITY           SKY/WX    TMP DP  RH WIND       PRES   REMARKS
COLO. SPRINGS  PTCLDY    42  20  41 CALM      30.00R
A. F. ACADEMY  NOT AVBL
ELLICOTT       PTCLDY    34  19  54 CALM      29.98R
FALCON         NOT AVBL
FORT CARSON    NOT AVBL
LIMON          PTCLDY    26  16  65 N5        29.97R WCI  20
MONUMENT HILL  CLEAR     34  18  51 CALM      30.00R
TRINIDAD       MOCLDY    40  28  62 W5        29.97R
$$

COZ042>045-048>051-090-091-220200-
...NORTHEAST COLORADO...

CITY           SKY/WX    TMP DP  RH WIND       PRES   REMARKS
GREELEY ARPT   MOCLDY    36  19  51 CALM      29.95R
AKRON          MOCLDY    40  19  43 SW6       29.93R
BURLINGTON     PTCLDY    37  23  56 S9        29.93R
WRAY           CLEAR     44  24  46 CALM      29.91R
STERLING       MOCLDY    36  23  60 W3        29.90R
HOLYOKE        CLEAR     37  21  52 S8        29.91R
FORT MORGAN    MOCLDY    44  17  34 SW5       29.93S
$$

COZ086-089-092>099-220200-
...SOUTHEAST COLORADO...

CITY           SKY/WX    TMP DP  RH WIND       PRES   REMARKS
PUEBLO         MOCLDY    45  30  55 E5        29.94R
LA JUNTA       CLOUDY    45  31  58 S3        29.94R
LAMAR          MOCLDY    35  28  75 SW5       29.92S WCI  31
SPRINGFIELD      N/A     39  27  62 N3        29.95R
$$


USA.gov is the U.S. government's official web portal to all federal, state and local government web resources and services.